Weather History for Oscoda, MI

Change the Weather History Date:

Thursday, February 20, 2014

  Actual Average Record
Temperature  
Mean Temperature 30 °F -  
Max Temperature 38 °F 30 °F 46 °F (2003)
Min Temperature 23 °F 14 °F 0 °F (2008)
Degree Days  
Heating Degree Days 34    
Moisture  
Dew Point 28 °F    
Average Humidity 85    
Maximum Humidity 97    
Minimum Humidity 64    
Precipitation  
Precipitation 0.17 in - - ()
Sea Level Pressure  
Sea Level Pressure 29.83 in    
Wind  
Wind Speed 6 mph (SE)    
Max Wind Speed 20 mph    
Max Gust Speed 29 mph    
Visibility 8 miles    
Events Rain , Snow    
Averages and records for this station are not official NWS values.
T = Trace of Precipitation, MM = Missing Value Source: NWS Daily Summary

Daily Weather History Graph

Daily Weather History Graph

Search for Another Location

Airport:

Trip Planner

Search our weather history database for the weather conditions in past years. The results will help you decide how hot, cold, wet, or windy it might be!

Date:

Astronomy

Feb. 20, 2014 Rise Set
Actual Time 7:25 AM EST 6:09 PM EST
Civil Twilight 6:56 AM EST 6:39 PM EST
Nautical Twilight 6:22 AM EST 7:12 PM EST
Astronomical Twilight 5:48 AM EST 7:46 PM EST
Moon No Moon Rise 9:54 AM EST (2/20)
Length of Visible Light 11h 42m
Length of Day
10h 43m
Waning Gibbous, 71% of the Moon is Illuminated
Feb 20
Waning Gibbous
Feb 22
Last Quarter
Mar 1
New
Mar 8
First Quarter
Mar 16
Full

Hourly Weather History & Observations

Time (EST) Temp. Windchill Dew Point Humidity Pressure Visibility Wind Dir Wind Speed Gust Speed Precip Events Conditions
12:14 AM 24.1 °F - 15.1 °F 69% 29.95 in 10.0 mi Calm Calm - N/A   Clear
12:34 AM 23.4 °F 18.9 °F 16.3 °F 75% 29.95 in 10.0 mi SSW 3.5 mph - N/A   Clear
12:54 AM 30.7 °F 27.3 °F 19.8 °F 64% 29.96 in 10.0 mi SSW 3.5 mph - N/A   Clear
1:14 AM 30.7 °F 27.3 °F 20.1 °F 65% 29.96 in 10.0 mi SSW 3.5 mph - N/A   Clear
1:34 AM 27.5 °F 20.2 °F 18.7 °F 69% 29.97 in 10.0 mi SSW 6.9 mph - N/A   Clear
1:54 AM 27.5 °F 21.1 °F 19.4 °F 72% 29.98 in 10.0 mi SW 5.8 mph - N/A   Clear
2:14 AM 30.0 °F 23.2 °F 22.3 °F 73% 29.99 in 10.0 mi SSW 6.9 mph - N/A   Clear
2:34 AM 31.6 °F 25.1 °F 23.0 °F 70% 29.99 in 10.0 mi SSW 6.9 mph - N/A   Clear
2:54 AM 30.4 °F - 22.5 °F 72% 29.99 in 10.0 mi Calm Calm - N/A   Clear
2:56 AM 30.2 °F - 22.3 °F 72% 29.99 in 10.0 mi Calm Calm - N/A   Clear
3:34 AM 28.9 °F 22.8 °F 22.8 °F 78% 29.99 in 10.0 mi South 5.8 mph - N/A   Clear
3:54 AM 30.0 °F 26.5 °F 22.6 °F 74% 29.99 in 10.0 mi SSW 3.5 mph - N/A   Clear
4:14 AM 27.7 °F 21.3 °F 22.1 °F 80% 30.00 in 10.0 mi SSW 5.8 mph - N/A   Clear
4:34 AM 30.2 °F 24.3 °F 23.0 °F 75% 29.99 in 10.0 mi SSW 5.8 mph - N/A   Clear
4:52 AM 30.0 °F 25.2 °F 23.4 °F 76% 29.99 in 10.0 mi SSW 4.6 mph - N/A   Clear
5:14 AM 29.7 °F 26.1 °F 23.0 °F 76% 29.99 in 10.0 mi South 3.5 mph - N/A   Clear
5:34 AM 29.1 °F 25.4 °F 23.0 °F 78% 29.99 in 10.0 mi South 3.5 mph - N/A   Clear
5:54 AM 29.3 °F 25.6 °F 23.0 °F 77% 29.98 in 10.0 mi SSW 3.5 mph - N/A   Clear
6:14 AM 28.8 °F - 23.0 °F 79% 29.98 in 10.0 mi Calm Calm - N/A   Clear
6:34 AM 28.0 °F - 23.0 °F 81% 29.97 in 10.0 mi Calm Calm - N/A   Clear
6:54 AM 27.9 °F - 23.0 °F 82% 29.95 in 10.0 mi Calm Calm - N/A   Clear
7:14 AM 28.4 °F - 23.9 °F 83% 29.95 in 10.0 mi Calm Calm - N/A   Clear
7:34 AM 27.9 °F - 23.7 °F 84% 29.95 in 7.0 mi Calm Calm - N/A   Clear
7:54 AM 26.8 °F - 23.0 °F 86% 29.95 in 7.0 mi Calm Calm - N/A   Scattered Clouds
8:15 AM 26.4 °F - 22.8 °F 86% 29.95 in 7.0 mi Calm Calm - N/A   Overcast
8:34 AM 26.6 °F - 23.4 °F 88% 29.95 in 7.0 mi Calm Calm - N/A   Overcast
8:54 AM 29.8 °F - 26.4 °F 87% 29.95 in 7.0 mi Calm Calm - N/A   Overcast
9:14 AM 32.2 °F 28.9 °F 28.2 °F 85% 29.95 in 5.0 mi SE 3.5 mph - N/A   Overcast
9:34 AM 32.4 °F - 28.2 °F 85% 29.95 in 7.0 mi Calm Calm - N/A   Overcast
9:54 AM 33.1 °F 28.7 °F 28.2 °F 82% 29.95 in 7.0 mi ESE 4.6 mph - N/A   Overcast
10:14 AM 34.0 °F 31.0 °F 28.4 °F 80% 29.95 in 7.0 mi SE 3.5 mph - N/A   Overcast
10:34 AM 34.7 °F 28.8 °F 28.4 °F 78% 29.94 in 10.0 mi ESE 6.9 mph - N/A   Overcast
10:54 AM 34.7 °F 28.8 °F 27.9 °F 76% 29.96 in 10.0 mi South 6.9 mph - N/A   Overcast
11:14 AM 35.4 °F 27.8 °F 31.5 °F 85% 29.95 in 4.0 mi South 10.4 mph 17.3 mph N/A Snow Light Snow
11:34 AM 36.7 °F - 33.3 °F 87% 29.93 in 7.0 mi Calm Calm - N/A Rain Light Rain
11:54 AM 38.1 °F 31.7 °F 33.8 °F 84% 29.90 in 10.0 mi East 9.2 mph - N/A   Overcast
12:14 PM 38.8 °F 31.2 °F 33.3 °F 80% 29.88 in 10.0 mi ESE 12.7 mph - N/A   Overcast
12:34 PM 38.5 °F 29.9 °F 32.5 °F 79% 29.88 in 10.0 mi ESE 15.0 mph 23.0 mph N/A   Overcast
12:54 PM 37.9 °F 28.5 °F 32.2 °F 80% 29.86 in 10.0 mi ESE 17.3 mph 20.7 mph N/A   Overcast
1:14 PM 37.2 °F 29.6 °F 32.2 °F 82% 29.86 in 10.0 mi ESE 11.5 mph 20.7 mph N/A   Overcast
1:34 PM 36.9 °F 28.7 °F 32.5 °F 84% 29.84 in 10.0 mi East 12.7 mph 21.9 mph N/A   Overcast
1:54 PM 36.5 °F 28.2 °F 32.4 °F 85% 29.83 in 10.0 mi ESE 12.7 mph 17.3 mph N/A   Overcast
2:14 PM 36.0 °F 27.5 °F 32.4 °F 87% 29.82 in 10.0 mi ESE 12.7 mph - N/A Rain Light Rain
2:34 PM 35.8 °F 28.3 °F 32.4 °F 87% 29.82 in 10.0 mi East 10.4 mph - N/A   Overcast
2:54 PM 35.6 °F 28.0 °F 32.4 °F 88% 29.81 in 10.0 mi East 10.4 mph 16.1 mph N/A   Overcast
3:14 PM 35.2 °F 26.6 °F 32.2 °F 89% 29.80 in 10.0 mi East 12.7 mph 16.1 mph N/A   Overcast
3:34 PM 34.9 °F 24.9 °F 32.7 °F 92% 29.79 in 10.0 mi East 16.1 mph 21.9 mph N/A   Overcast
3:54 PM 34.7 °F 25.1 °F 32.9 °F 93% 29.81 in 7.0 mi East 15.0 mph 23.0 mph N/A Snow Light Snow
4:14 PM 34.3 °F 24.6 °F 32.9 °F 94% 29.80 in 1.2 mi East 15.0 mph 25.3 mph N/A Snow Light Snow
4:34 PM 34.2 °F 24.4 °F 32.9 °F 95% 29.80 in 2.0 mi ESE 15.0 mph 23.0 mph N/A Snow Light Snow
4:54 PM 33.8 °F 25.3 °F 32.4 °F 94% 29.80 in 2.0 mi ESE 11.5 mph 17.3 mph N/A Snow Light Snow
5:14 PM 33.8 °F 24.8 °F 32.4 °F 94% 29.77 in 1.2 mi East 12.7 mph 18.4 mph N/A Snow Light Snow
5:34 PM 33.6 °F 25.0 °F 32.4 °F 95% 29.77 in 0.5 mi East 11.5 mph 19.6 mph N/A Snow Light Snow
5:54 PM 33.8 °F 25.3 °F 32.5 °F 95% 29.78 in 1.8 mi East 11.5 mph - 0.01 in Snow Light Snow
6:14 PM 33.8 °F 23.5 °F 32.9 °F 96% 29.73 in 0.2 mi East 16.1 mph 21.9 mph N/A Snow Light Snow
6:34 PM 33.8 °F 23.5 °F 32.9 °F 96% 29.72 in 1.5 mi East 16.1 mph 24.2 mph 0.03 in Snow Light Snow
6:54 PM 34.0 °F 23.0 °F 32.9 °F 96% 29.70 in 7.0 mi East 18.4 mph 25.3 mph 0.04 in   Overcast
7:14 PM 34.0 °F 22.7 °F 32.9 °F 96% 29.68 in 10.0 mi East 19.6 mph 24.2 mph N/A Snow Light Snow
7:34 PM 34.0 °F 24.2 °F 32.5 °F 94% 29.68 in 10.0 mi East 15.0 mph 24.2 mph N/A Snow Light Snow
7:54 PM 33.8 °F 23.5 °F 32.4 °F 94% 29.65 in 5.0 mi East 16.1 mph 27.6 mph N/A Snow Light Snow
8:14 PM 33.8 °F 23.2 °F 32.5 °F 95% 29.60 in 10.0 mi East 17.3 mph 27.6 mph N/A   Overcast
8:34 PM 34.0 °F 23.0 °F 32.5 °F 94% 29.61 in 10.0 mi East 18.4 mph 25.3 mph N/A   Overcast
8:54 PM 33.8 °F 23.5 °F 32.4 °F 94% 29.59 in 4.0 mi East 16.1 mph 21.9 mph 0.01 in Snow Light Snow
9:14 PM 34.0 °F 24.2 °F 32.5 °F 94% 29.58 in 3.0 mi East 15.0 mph 24.2 mph 0.01 in Snow Light Snow
9:34 PM 33.8 °F 23.5 °F 32.5 °F 95% 29.55 in 2.5 mi ESE 16.1 mph 23.0 mph 0.02 in Snow Light Snow
9:53 PM 33.8 °F 24.3 °F 32.9 °F 96% 29.54 in 2.5 mi ESE 13.8 mph 24.2 mph 0.05 in Snow Light Snow
10:14 PM 34.0 °F 24.2 °F 32.9 °F 96% 29.51 in 2.5 mi East 15.0 mph 18.4 mph 0.01 in   Overcast
10:34 PM 34.3 °F 24.6 °F 33.4 °F 97% 29.49 in 1.8 mi ESE 15.0 mph 24.2 mph 0.03 in Snow Light Snow
10:54 PM 35.6 °F 26.2 °F 34.5 °F 96% 29.46 in 5.0 mi ESE 15.0 mph 28.8 mph 0.04 in Snow Light Snow
11:14 PM 34.7 °F 24.7 °F 33.8 °F 97% 29.45 in 4.0 mi ESE 16.1 mph 24.2 mph 0.01 in Snow Light Snow
11:34 PM 34.7 °F 25.9 °F 33.8 °F 97% 29.43 in 7.0 mi ESE 12.7 mph 21.9 mph 0.01 in Rain Rain
11:54 PM 34.7 °F 24.7 °F 33.8 °F 97% 29.40 in 5.0 mi ESE 16.1 mph 23.0 mph 0.02 in Rain Light Rain